Weather History for Maun, Botswana

Change the Weather History Date:

Monday, November 12, 2012

  Actual Average Record
Temperature  
Mean Temperature 86 °F -  
Max Temperature 98 °F 90 °F 104 °F (2011)
Min Temperature 73 °F 69 °F 66 °F (2004)
Cooling Degree Days 20    
Growing Degree Days 36 (Base 50)    
Moisture  
Dew Point 59 °F    
Average Humidity 40    
Maximum Humidity 61    
Minimum Humidity 19    
Precipitation  
Precipitation 0.00 in - - ()
Sea Level Pressure  
Sea Level Pressure 29.99 in    
Wind  
Wind Speed 6 mph ()    
Max Wind Speed 15 mph    
Max Gust Speed -    
Visibility 6.2 miles    
Events Thunderstorm    
Averages and records for this station are not official NWS values.
T = Trace of Precipitation, MM = Missing Value Source: Averaged Metar Reports

Daily Weather History Graph

Daily Weather History Graph

Search for Another Location

Airport:

Trip Planner

Search our weather history database for the weather conditions in past years. The results will help you decide how hot, cold, wet, or windy it might be!

Date:

Astronomy

Nov. 12, 2012 Rise Set
Actual Time 5:39 AM CAT 6:41 PM CAT
Civil Twilight 5:16 AM CAT 7:04 PM CAT
Nautical Twilight 4:48 AM CAT 7:32 PM CAT
Astronomical Twilight 4:20 AM CAT 8:00 PM CAT
Moon 4:09 AM CAT (11/12) 5:16 PM CAT (11/12)
Length of Visible Light 13h 48m
Length of Day
13h 01m
Waning Crescent, 3% of the Moon is Illuminated
Nov 12
Waning Crescent
Nov 14
New
Nov 20
First Quarter
Nov 28
Full
Dec 6
Last Quarter

Hourly Weather History & Observations

Time (CAT) Temp. Heat Index Dew Point Humidity Pressure Visibility Wind Dir Wind Speed Gust Speed Precip Events Conditions
12:00 AM 80.6 °F 81.5 °F 60.8 °F 51% 30.01 in - Variable 2.3 mph - N/A   Clear
1:00 AM 80.6 °F 80.8 °F 57.2 °F 45% 30.01 in - ENE 9.2 mph - N/A   Clear
2:00 AM 79 °F - 58 °F 39%  in 6 mi East 9.2 mph - -  
3:00 AM 77.0 °F - 57.2 °F 50% 29.98 in - East 3.5 mph - N/A   Clear
4:00 AM 75.2 °F - 59.0 °F 57% 30.01 in - East 9.2 mph - N/A   Clear
5:00 AM 75.2 °F - 59.0 °F 57% 30.01 in - East 9.2 mph - N/A   Clear
6:00 AM 73.4 °F - 59.0 °F 61% 30.04 in - NE 3.5 mph - N/A   Clear
7:00 AM 77.0 °F - 60.8 °F 57% 30.06 in - NE 3.5 mph - N/A   Clear
8:00 AM 80.6 °F 81.5 °F 60.8 °F 51% 30.06 in - NE 8.1 mph - N/A   Clear
9:00 AM 86.0 °F 86.1 °F 60.8 °F 43% 30.06 in - NE 9.2 mph - N/A   Clear
10:00 AM 87.8 °F 87.6 °F 60.8 °F 40% 30.06 in - NNE 10.4 mph - N/A   Clear
11:00 AM 91.4 °F 91.4 °F 60.8 °F 36% 30.04 in 6.2 mi North 5.8 mph - N/A   Partly Cloudy
12:00 PM 93.2 °F 93.3 °F 60.8 °F 34% 30.04 in 6.2 mi NNE 8.1 mph - N/A   Partly Cloudy
1:00 PM 93.2 °F 93.3 °F 60.8 °F 34% 29.98 in 6.2 mi NW 10.4 mph - N/A   Partly Cloudy
2:00 PM 96 °F - 58 °F 19%  in 6 mi West 5.8 mph - -   Scattered Clouds
3:00 PM 98.6 °F 98.5 °F 59.0 °F 27% 29.92 in 6.2 mi Variable 2.3 mph - N/A   Partly Cloudy
4:00 PM 95.0 °F 92.7 °F 53.6 °F 25% 29.89 in 6.2 mi East 15.0 mph - N/A Thunderstorm Thunderstorm
5:00 PM 96.8 °F 97.1 °F 60.8 °F 30% 29.89 in 6.2 mi Variable 2.3 mph - N/A   Partly Cloudy
6:00 PM 95.0 °F 94.4 °F 59.0 °F 30% 29.89 in 6.2 mi SSE 8.1 mph - N/A   Partly Cloudy
7:00 PM 93.2 °F 91.9 °F 57.2 °F 30% 29.92 in 6.2 mi ESE 8.1 mph - N/A   Partly Cloudy
8:00 PM 91 °F - 60 °F 26%  in 6 mi NNE 3.5 mph - -   Scattered Clouds
8:00 PM 91.4 °F 91.4 °F 60.8 °F 36% 29.95 in 6.2 mi NNE 3.5 mph - N/A   Partly Cloudy
9:00 PM 87.8 °F 87.6 °F 60.8 °F 40% 29.98 in 6.2 mi NW 3.5 mph - N/A   Partly Cloudy
10:00 PM 86.0 °F 86.1 °F 60.8 °F 43% 30.01 in 6.2 mi NW 5.8 mph - N/A   Partly Cloudy
11:00 PM 84.2 °F 83.8 °F 59.0 °F 42% 30.04 in 6.2 mi SE 6.9 mph - N/A   Partly Cloudy